Regional Weather Roundup
Issued by NWS

Home | Current Version | Previous Version | Graphics & Text | Print | Product List | Glossary On
Versions: 1 2 3 4 5 6 7 8 9 10 11 12 13 14 15 16 17 18 19 20 21 22 23 24 25 26 27 28 29 30 31 32 33 34 35 36 37 38 39 40 41 42 43 44 45 46 47 48 49 50
113
ASUS43 KDMX 311808
RWRIA

WEATHER ROUNDUP FOR IOWA
NATIONAL WEATHER SERVICE DES MOINES IA
100 PM CDT WED AUG 31 2016

NOTE: "FAIR" INDICATES FEW OR NO CLOUDS BELOW 12,000 FEET WITH NO
SIGNIFICANT WEATHER AND/OR OBSTRUCTIONS TO VISIBILITY.

* - THESE STATIONS ARE NOT NWS STATIONS...THUS NOT UNDER NWS
QUALITY CONTROL.  THEY ALSO DO NOT REPORT WEATHER SUCH
AS PRECIPITATION OR FOG.

IAZ001>003-012>014-020>022-031>034-043>046-311900-
   NORTHWEST IOWA

CITY           SKY/WX    TMP DP  RH WIND       PRES   REMARKS
CARROLL *      SUNNY     77  59  53 NE10      30.19F
CHEROKEE *     SUNNY     76  56  50 NE7       30.22F
DENISON *      SUNNY     77  57  50 VRB7G13   30.19S
LE MARS *      SUNNY     79  57  47 NE6       30.23S HX  80
ORANGE CITY *  SUNNY     77  57  50 E3        30.23F
SHELDON *      SUNNY     77  59  53 CALM      30.22S
SIOUX CITY     SUNNY     78  60  53 VRB5      30.22S
6HR MIN TEMP:  60; 6HR MAX TEMP:  79;

SPENCER        SUNNY     77  55  46 N6        30.23S
6HR MIN TEMP:  50; 6HR MAX TEMP:  78;

STORM LAKE *   SUNNY     75  59  57 VRB6      30.23S
$$

IAZ055>058-069>071-079>083-090>094-311900-
   SOUTHWEST IOWA

CITY           SKY/WX    TMP DP  RH WIND       PRES   REMARKS
ATLANTIC *     SUNNY     77  59  53 N8        30.19S
AUDUBON *      SUNNY     77  61  57 NE7       30.21S
CLARINDA *       N/A     79  63  57 MISG        N/A  HX  80
COUNCIL BLFS * SUNNY     77  61  57 N9        30.19F
CRESTON *      CLOUDY    75  59  57 NE9       30.18F
HARLAN  *      SUNNY     77  61  57 NE8       30.23S
LAMONI         CLOUDY    75  64  68 NE9       30.15F
6HR MIN TEMP:  66; 6HR MAX TEMP:  75;

RED OAK *      SUNNY     77  63  61 NE6       30.18F
SHENANDOAH *   MOSUNNY   77  61  57 N7        30.18S
$$

IAZ047>049-059>061-072>074-084-311900-
   CENTRAL IOWA

CITY           SKY/WX    TMP DP  RH WIND       PRES   REMARKS
AMES           SUNNY     79  61  53 N9        30.16F HX  80
6HR MIN TEMP:  60; 6HR MAX TEMP:  79;

ANKENY *         N/A    N/A N/A N/A MISG        N/A
BOONE *        SUNNY     77  59  53 N9G17     30.17F
CHARITON *       N/A     77  63  61 N9        30.15S
DES MOINES     MOSUNNY   80  57  45 N12       30.15F HX  80
6HR MIN TEMP:  66; 6HR MAX TEMP:  80;

GRINNELL*      SUNNY     77  56  48 N8        30.16F
KNOXVILLE *    CLOUDY    77  59  53 NE10      30.14S
MARSHALLTOWN   SUNNY     77  59  53 N10       30.16F
6HR MIN TEMP:  58; 6HR MAX TEMP:  77;

NEWTON *       SUNNY     77  59  53 N8G15     30.15F
PERRY *          N/A     78  59  51 N8        30.18S
$$

IAZ004>006-015-016-023>025-035-036-311900-
   NORTH CENTRAL IOWA

CITY           SKY/WX    TMP DP  RH WIND       PRES   REMARKS
ALGONA *       SUNNY     75  55  50 VRB6      30.21S
ESTHERVILLE    MOSUNNY   75  60  59 N8        30.22S
6HR MIN TEMP:  51; 6HR MAX TEMP:  75;

FORT DODGE *   SUNNY     75  55  50 N5        30.21F
MASON CITY     SUNNY     76  55  48 N8        30.21F
6HR MIN TEMP:  53; 6HR MAX TEMP:  76;

FOREST CITY *    N/A     73  54  49 N7        30.21S
WEBSTER CITY * SUNNY     77  59  53 VRB7G13   30.17F
IOWA FALLS *     N/A     76  58  54 N7        30.20S
$$

IAZ007>011-017>019-026>030-037>042-050>054-066-311900-
   NORTHEAST IOWA

CITY           SKY/WX    TMP DP  RH WIND       PRES   REMARKS
CEDAR RAPIDS   SUNNY     77  56  48 N13       30.13F
6HR MIN TEMP:  62; 6HR MAX TEMP:  78;

CHARLES CITY * SUNNY     75  54  46 NE9G16    30.19F
CLINTON *      PTSUNNY   75  65  70 N12       30.12F
DECORAH *      SUNNY     73  54  49 N7G15     30.16F
DUBUQUE        SUNNY     74  57  55 N13       30.14F
6HR MIN TEMP:  61; 6HR MAX TEMP:  75;

MONTICELLO *   SUNNY     75  57  53 N7G16     30.13F
OELWEIN *      SUNNY     75  57  53 N10G16    30.17F
WATERLOO       SUNNY     76  56  49 N12       30.15F
6HR MIN TEMP:  58; 6HR MAX TEMP:  76;

$$

IAZ064-065-067-068-078-311900-
   EAST CENTRAL IOWA

CITY           SKY/WX    TMP DP  RH WIND       PRES   REMARKS
DAVENPORT      MOSUNNY   77  66  68 N10       30.12S
6HR MIN TEMP:  65; 6HR MAX TEMP:  78;

IOWA CITY      MOSUNNY   77  59  53 NW13      30.13F
6HR MIN TEMP:  67; 6HR MAX TEMP:  79;

MT. PLEASANT * MOSUNNY   80  67  63 N7        30.11F HX  83
QUAD CITIES    PTSUNNY   80  65  59 NE9       30.10S HX  82
6HR MIN TEMP:  69; 6HR MAX TEMP:  80;

$$

IAZ062-063-075>077-085>089-095>099-311900-
   SOUTHEAST IOWA

CITY           SKY/WX    TMP DP  RH WIND       PRES   REMARKS
BURLINGTON     CLOUDY    79  69  71 N9        30.10S HX  81
6HR MIN TEMP:  69; 6HR MAX TEMP:  79;

FAIRFIELD *    MOSUNNY   77  63  61 N9        30.12F
FORT MADISON * CLOUDY    77  68  73 N7        30.11S
KEOKUK *       MOSUNNY   79  68  69 N9        30.09F HX  81
OSKALOOSA *      N/A     76  64  66 NE9       30.14S
OTTUMWA        MOSUNNY   77  61  57 N9        30.12F
6HR MIN TEMP:  65; 6HR MAX TEMP:  77;

WASHINGTON *   MOSUNNY   77  64  65 N13       30.13F
$$

ABBREVIATIONS USED IN REMARKS
   TC - TEMPERATURES IN CELSIUS
  WCI - WIND CHILL INDEX
   HX - HEAT INDEX
  VSB - VISIBILITY
$$





USA.gov is the U.S. government's official web portal to all federal, state and local government web resources and services.